This demonstration page uses our WeatherBlox Daily Observations layout. Learn more.

Left ArrowRight Arrow

39.12711, -84.51439

Hourly Observations for December 10, 2018

Temp ( °F °C ) Dew Point ( °F °C ) Humidity (%) Winds ( mph kmh ) Pressure ( in mb ) Visibility ( mi km ) Precip ( " mm )
12:53 am 00:53 Clear 24 -4.4 17 -8.3 75 75 N 3 6 30.27 1025 10 16 0.00 0.00
1:53 am 01:53 Clear 23 -5 19 -7.2 85 85 Calm 30.26 1025 10 16 0.00 0.00
2:53 am 02:53 Clear with Mist and Fog 21 -6.1 18 -7.8 88 88 Calm 30.27 1025 6 10 0.00 0.00
3:06 am 03:06 Clear with Mist and Fog 21 -6.1 18 -7.8 88 88 Calm 30.30 1026 3 4 0.00 0.00
3:14 am 03:14 Clear with Mist and Fog 21 -6.1 18 -7.8 88 88 Calm 30.30 1026 5 8 0.00 0.00
3:53 am 03:53 Clear with Mist and Fog 19 -7.2 16 -8.9 88 88 Calm 30.27 1025 4 6 0.00 0.00
4:47 am 04:47 Clear with Mist and Fog 19 -7 16 -9 86 86 Calm 30.27 1025 2 3 0.00 0.00
4:48 am 04:48 Clear with Mist and Fog 19 -7.2 16 -8.9 88 88 Calm 30.26 1025 2 2 0.00 0.00
4:59 am 04:59 Clear with Mist and Fog 19 -7.2 16 -8.9 88 88 Calm 30.27 1025 3 5 0.00 0.00
5:53 am 05:53 Clear with Mist and Fog 18 -7.8 15 -9.4 88 88 Calm 30.28 1025 5 8 0.00 0.00
6:53 am 06:53 Clear with Mist and Fog 18 -7.8 15 -9.4 88 88 Calm 30.29 1026 5 8 0.00 0.00
7:53 am 07:53 Sunny with Mist and Fog 17 -8.3 14 -10 88 88 NE 3 6 30.30 1026 4 6 0.00 0.00
8:53 am 08:53 Sunny with Mist and Fog 21 -6.1 18 -7.8 88 88 Calm 30.31 1026 4 6 0.00 0.00
9:53 am 09:53 Sunny with Mist and Fog 26 -3.3 22 -5.6 84 84 E 3 6 30.32 1027 6 10 0.00 0.00
10:53 am 10:53 Hazy 30 -1.1 23 -5 75 75 E 3 6 30.32 1027 6 10 0.00 0.00
11:53 am 11:53 Hazy 33 0.6 24 -4.4 70 70 E 6 9 30.30 1026 6 10 0.00 0.00
12:53 pm 12:53 Hazy 35 1.7 23 -5 61 61 NNE 8 13 30.29 1026 6 10 0.00 0.00
1:53 pm 13:53 Hazy 34 1.1 23 -5 64 64 NNW 9 15 30.28 1026 5 8 0.00 0.00
2:53 pm 14:53 Hazy 33 0.6 22 -5.6 64 64 N 7 11 30.27 1025 5 8 0.00 0.00
3:53 pm 15:53 Hazy 31 -0.6 22 -5.6 69 69 N 6 9 30.28 1025 5 8 0.00 0.00
4:53 pm 16:53 Hazy 28 -2.2 21 -6.1 75 75 N 6 9 30.29 1026 5 8 0.00 0.00
5:53 pm 17:53 Hazy 26 -3.3 20 -6.7 78 78 N 5 7 30.30 1026 6 10 0.00 0.00
6:53 pm 18:53 Hazy 25 -3.9 20 -6.7 81 81 NE 3 6 30.31 1026 6 10 0.00 0.00
7:53 pm 19:53 Clear with Mist and Fog 22 -5.6 18 -7.8 85 85 NE 3 6 30.32 1027 5 8 0.00 0.00
8:53 pm 20:53 Clear with Mist and Fog 22 -5.6 19 -7.2 89 89 Calm 30.32 1027 3 5 0.00 0.00
9:53 pm 21:53 Clear with Mist and Fog 20 -6.7 17 -8.3 89 89 Calm 30.31 1026 3 5 0.00 0.00
10:53 pm 22:53 Clear with Mist and Fog 19 -7.2 17 -8.3 92 92 Calm 30.30 1026 2 3 0.00 0.00
11:11 pm 23:11 Clear with Mist and Fog 19 -7.2 16 -8.9 88 88 Calm 30.30 1026 3 5 0.00 0.00
11:53 pm 23:53 Clear with Mist and Fog 18 -7.8 15 -9.4 88 88 ENE 3 6 30.30 1026 3 5 0.00 0.00

Powered by AerisWeather